Total_Precipitation_Accumulation
0.40 0.32 0.36 0.39 0.34 0.34 0.50 0.53 0.43 0.25 0.22 0.25 0.23 0.23 0.26 0.26 0.25 0.22 0.19 0.21 0.27 0.32 0.34 0.39 0.46 0.54 0.58 0.59 0.56 0.53 0.55 0.62 0.68 0.73 0.80 0.84 0.84 0.97 1.15 1.12 0.99 0.91 0.89 0.92
0.33 0.26 0.29 0.29 0.25 0.28 0.31 0.31 0.29 0.21 0.22 0.24 0.22 0.18 0.20 0.23 0.25 0.27 0.26 0.25 0.28 0.33 0.35 0.41 0.47 0.56 0.65 0.62 0.59 0.51 0.51 0.57 0.63 0.73 0.85 0.88 0.84 0.88 1.00 1.09 1.04 0.95 0.90 0.89
0.48 0.26 0.43 0.47 0.34 0.33 0.33 0.32 0.32 0.35 0.30 0.24 0.23 0.23 0.27 0.29 0.28 0.30 0.30 0.32 0.31 0.34 0.38 0.45 0.49 0.55 0.64 0.64 0.62 0.56 0.52 0.57 0.62 0.66 0.80 0.87 0.87 0.92 0.96 1.03 1.10 1.10 0.98 0.89
0.79 0.59 0.84 0.44 0.24 0.26 0.29 0.34 0.36 0.34 0.29 0.27 0.29 0.28 0.28 0.31 0.34 0.34 0.33 0.34 0.34 0.37 0.42 0.44 0.48 0.51 0.56 0.59 0.59 0.59 0.58 0.61 0.66 0.63 0.67 0.81 0.91 0.92 0.93 0.97 1.00 1.08 1.05 0.96
1.20 0.88 0.51 0.25 0.21 0.28 0.34 0.39 0.32 0.28 0.25 0.23 0.22 0.20 0.21 0.21 0.26 0.33 0.33 0.33 0.35 0.38 0.41 0.42 0.43 0.45 0.53 0.57 0.55 0.59 0.65 0.67 0.66 0.61 0.61 0.71 0.81 0.89 0.92 0.93 0.91 0.95 0.97 0.96
1.38 1.05 0.51 0.32 0.21 0.19 0.28 0.48 0.30 0.24 0.26 0.23 0.23 0.30 0.24 0.18 0.22 0.30 0.28 0.29 0.33 0.35 0.34 0.36 0.41 0.43 0.52 0.57 0.51 0.55 0.61 0.67 0.62 0.56 0.52 0.54 0.64 0.79 0.88 0.90 0.87 0.88 0.90 0.91
1.20 0.97 0.44 0.30 0.22 0.21 0.44 0.54 0.27 0.23 0.25 0.24 0.28 0.35 0.27 0.23 0.26 0.29 0.24 0.24 0.28 0.30 0.32 0.38 0.42 0.41 0.47 0.54 0.55 0.55 0.60 0.66 0.60 0.55 0.54 0.55 0.60 0.73 0.83 0.91 0.93 0.88 0.85 0.86
0.91 1.02 0.56 0.29 0.30 0.46 0.53 0.30 0.21 0.19 0.19 0.21 0.20 0.19 0.19 0.21 0.25 0.26 0.22 0.20 0.21 0.24 0.28 0.33 0.38 0.39 0.46 0.53 0.57 0.60 0.62 0.60 0.60 0.60 0.58 0.60 0.63 0.71 0.83 0.93 0.99 0.93 0.85 0.83
0.67 0.60 0.42 0.34 0.42 0.42 0.33 0.23 0.17 0.18 0.17 0.16 0.16 0.17 0.19 0.22 0.24 0.26 0.23 0.22 0.22 0.23 0.26 0.31 0.35 0.39 0.48 0.54 0.53 0.58 0.58 0.57 0.57 0.61 0.60 0.62 0.67 0.74 0.83 0.92 0.96 0.94 0.86 0.80
0.50 0.34 0.28 0.29 0.31 0.29 0.24 0.20 0.17 0.17 0.17 0.16 0.16 0.16 0.19 0.22 0.22 0.24 0.23 0.23 0.22 0.24 0.26 0.33 0.36 0.38 0.45 0.51 0.48 0.47 0.49 0.54 0.54 0.59 0.64 0.67 0.72 0.75 0.81 0.90 0.98 0.89 0.81 0.77
0.44 0.28 0.24 0.24 0.24 0.24 0.20 0.18 0.16 0.17 0.17 0.17 0.17 0.17 0.19 0.21 0.22 0.23 0.27 0.26 0.25 0.26 0.28 0.34 0.39 0.43 0.47 0.46 0.44 0.44 0.44 0.52 0.59 0.62 0.68 0.72 0.74 0.77 0.82 0.84 0.98 0.95 0.82 0.80
0.41 0.28 0.30 0.28 0.24 0.23 0.22 0.21 0.21 0.20 0.19 0.16 0.18 0.21 0.20 0.21 0.23 0.25 0.29 0.30 0.28 0.29 0.30 0.36 0.41 0.49 0.50 0.44 0.42 0.44 0.47 0.52 0.59 0.65 0.68 0.69 0.67 0.70 0.81 0.84 0.90 0.88 0.83 0.83
0.24 0.23 0.24 0.23 0.21 0.21 0.21 0.20 0.20 0.21 0.21 0.19 0.18 0.20 0.23 0.24 0.24 0.26 0.29 0.32 0.35 0.34 0.37 0.39 0.43 0.50 0.50 0.44 0.40 0.42 0.49 0.52 0.57 0.64 0.63 0.60 0.59 0.59 0.65 0.78 0.89 0.89 0.85 0.84
0.14 0.17 0.19 0.17 0.16 0.16 0.15 0.16 0.16 0.17 0.17 0.17 0.17 0.18 0.22 0.23 0.23 0.25 0.29 0.35 0.39 0.38 0.39 0.41 0.44 0.48 0.48 0.41 0.39 0.41 0.46 0.53 0.56 0.59 0.61 0.60 0.59 0.58 0.60 0.66 0.77 0.83 0.87 0.86
0.09 0.11 0.14 0.12 0.11 0.11 0.12 0.13 0.13 0.14 0.14 0.13 0.14 0.16 0.19 0.23 0.25 0.28 0.32 0.36 0.39 0.39 0.40 0.43 0.47 0.52 0.50 0.42 0.39 0.41 0.46 0.49 0.49 0.54 0.59 0.61 0.61 0.63 0.64 0.66 0.70 0.75 0.81 0.94
0.10 0.10 0.11 0.11 0.12 0.12 0.12 0.13 0.13 0.13 0.13 0.13 0.13 0.14 0.17 0.22 0.28 0.33 0.37 0.39 0.42 0.43 0.44 0.46 0.49 0.53 0.50 0.43 0.41 0.41 0.48 0.56 0.54 0.55 0.59 0.62 0.63 0.67 0.71 0.74 0.76 0.77 0.80 0.89
0.16 0.15 0.13 0.13 0.12 0.12 0.14 0.14 0.14 0.13 0.14 0.14 0.15 0.15 0.15 0.19 0.24 0.30 0.35 0.40 0.43 0.44 0.45 0.46 0.49 0.51 0.50 0.47 0.45 0.44 0.47 0.52 0.59 0.58 0.57 0.60 0.65 0.69 0.73 0.79 0.81 0.77 0.74 0.83
0.20 0.18 0.15 0.15 0.14 0.13 0.12 0.12 0.13 0.15 0.16 0.16 0.16 0.17 0.18 0.22 0.26 0.31 0.36 0.38 0.39 0.43 0.47 0.48 0.51 0.52 0.51 0.53 0.50 0.48 0.49 0.51 0.53 0.55 0.57 0.62 0.68 0.70 0.76 0.81 0.81 0.80 0.78 0.85
0.15 0.15 0.13 0.12 0.13 0.12 0.12 0.13 0.14 0.15 0.16 0.17 0.18 0.19 0.21 0.24 0.28 0.33 0.37 0.37 0.37 0.41 0.47 0.49 0.54 0.51 0.51 0.56 0.57 0.52 0.54 0.56 0.58 0.56 0.58 0.70 0.74 0.71 0.75 0.80 0.83 0.83 0.84 0.87
0.15 0.13 0.12 0.11 0.11 0.11 0.13 0.14 0.13 0.13 0.14 0.15 0.18 0.19 0.21 0.24 0.28 0.32 0.36 0.38 0.40 0.43 0.45 0.49 0.50 0.48 0.50 0.58 0.63 0.57 0.60 0.62 0.62 0.60 0.60 0.66 0.72 0.75 0.76 0.80 0.83 0.86 0.86 0.86
0.15 0.12 0.11 0.11 0.11 0.11 0.12 0.14 0.14 0.14 0.14 0.16 0.20 0.24 0.26 0.29 0.31 0.34 0.35 0.34 0.35 0.39 0.41 0.46 0.46 0.46 0.49 0.60 0.69 0.64 0.64 0.65 0.65 0.64 0.65 0.67 0.72 0.76 0.78 0.79 0.82 0.83 0.85 0.86
0.15 0.15 0.14 0.12 0.12 0.14 0.15 0.16 0.18 0.18 0.17 0.18 0.21 0.25 0.28 0.30 0.31 0.33 0.33 0.34 0.35 0.40 0.41 0.40 0.40 0.48 0.56 0.63 0.65 0.64 0.64 0.64 0.66 0.68 0.70 0.70 0.76 0.81 0.80 0.78 0.83 0.83 0.83 0.86
0.17 0.16 0.17 0.18 0.19 0.20 0.18 0.18 0.20 0.21 0.20 0.21 0.23 0.27 0.30 0.32 0.32 0.34 0.35 0.35 0.37 0.44 0.43 0.42 0.47 0.55 0.64 0.61 0.59 0.61 0.62 0.64 0.66 0.69 0.73 0.75 0.78 0.82 0.83 0.82 0.83 0.84 0.88 0.90
0.20 0.19 0.20 0.21 0.22 0.23 0.21 0.20 0.21 0.24 0.25 0.26 0.26 0.29 0.33 0.34 0.34 0.33 0.37 0.43 0.46 0.50 0.47 0.51 0.57 0.61 0.66 0.60 0.58 0.61 0.66 0.69 0.71 0.75 0.79 0.81 0.83 0.86 0.85 0.84 0.85 0.84 0.86 0.89
0.23 0.22 0.22 0.22 0.24 0.26 0.27 0.25 0.24 0.25 0.27 0.29 0.30 0.31 0.35 0.40 0.43 0.42 0.42 0.46 0.51 0.55 0.54 0.58 0.63 0.65 0.63 0.63 0.63 0.66 0.72 0.76 0.82 0.91 0.93 0.89 0.88 0.88 0.84 0.81 0.84 0.88 0.88 0.86
0.28 0.28 0.29 0.29 0.31 0.31 0.32 0.31 0.30 0.29 0.28 0.31 0.34 0.36 0.41 0.44 0.46 0.47 0.48 0.50 0.54 0.58 0.58 0.58 0.61 0.65 0.67 0.71 0.74 0.77 0.82 0.86 0.89 0.89 0.85 0.83 0.83 0.83 0.80 0.78 0.80 0.84 0.85 0.84
0.33 0.33 0.33 0.35 0.36 0.36 0.38 0.38 0.40 0.39 0.38 0.41 0.44 0.44 0.46 0.49 0.52 0.55 0.55 0.56 0.58 0.60 0.62 0.64 0.67 0.71 0.77 0.80 0.83 0.87 0.89 0.90 0.89 0.88 0.84 0.83 0.83 0.80 0.78 0.78 0.80 0.81 0.81 0.77